Newberry, MI

7:20 AM EST on February 24, 2018 (GMT -0500)
Luce County

Weather History for KERY - November, 2012

Change the Weather History Date:

Friday, November 2, 2012

  Actual Average Record
Temperature  
Mean Temperature 34 °F -  
Max Temperature 37 °F 46 °F 71 °F (1990)
Min Temperature 30 °F 33 °F 11 °F (1951)
Degree Days  
Heating Degree Days 32    
Moisture  
Dew Point 29 °F    
Average Humidity 84    
Maximum Humidity 100    
Minimum Humidity 75    
Precipitation  
Precipitation 0.00 in - - ()
Sea Level Pressure  
Sea Level Pressure 29.99 in    
Wind  
Wind Speed 8 mph (NNW)    
Max Wind Speed 17 mph    
Max Gust Speed 24 mph    
Visibility 9 miles    
Events Snow    
Averages and records for this station are not official NWS values.
T = Trace of Precipitation, MM = Missing Value Source: NWS Daily Summary

Daily Weather History Graph

Daily Weather History Graph

Search for Another Location

Airport or City:

Trip Planner

Search our weather history database for the weather conditions in past years. The results will help you decide how hot, cold, wet, or windy it might be!

Date:

Astronomy

Nov. 02, 2012 Rise Set
Actual Time 8:25 AM EDT 6:24 PM EDT
Civil Twilight 7:53 AM EDT 6:56 PM EDT
Nautical Twilight 7:18 AM EDT 7:32 PM EDT
Astronomical Twilight 6:43 AM EDT 8:06 PM EDT
Moon 9:04 PM EDT (11/2) 11:52 AM EDT (11/2)
Length of Visible Light 11h 02m
Length of Day
9h 59m
Waning Gibbous, 87% of the Moon is Illuminated
Nov 2
Waning Gibbous
Nov 6
Last Quarter
Nov 13
New
Nov 20
First Quarter
Nov 28
Full

Hourly Weather History & Observations

Time (EDT) Temp. Windchill Dew Point Humidity Pressure Visibility Wind Dir Wind Speed Gust Speed Precip Events Conditions
12:14 AM 32.0 °F 25.6 °F 30.2 °F 93% 29.82 in 7.0 mi NW 6.9 mph - N/A   Overcast
12:35 AM 32.0 °F 26.4 °F 28.4 °F 87% 29.83 in 10.0 mi NNW 5.8 mph - N/A   Overcast
12:54 AM 33.8 °F 26.4 °F 28.4 °F 81% 29.83 in 10.0 mi NNW 9.2 mph 17.3 mph N/A   Overcast
1:14 AM 33.8 °F 25.8 °F 28.4 °F 81% 29.84 in 10.0 mi NNW 10.4 mph 17.3 mph N/A   Overcast
1:35 AM 32.0 °F 26.4 °F 28.4 °F 87% 29.84 in 10.0 mi NNW 5.8 mph - N/A   Overcast
1:54 AM 33.8 °F 25.8 °F 28.4 °F 81% 29.85 in 10.0 mi NNW 10.4 mph - N/A   Overcast
2:15 AM 32.0 °F 26.4 °F 28.4 °F 87% 29.85 in 10.0 mi NW 5.8 mph 16.1 mph N/A   Overcast
2:35 AM 32.0 °F 24.2 °F 28.4 °F 87% 29.86 in 10.0 mi NW 9.2 mph - N/A   Overcast
2:54 AM 30.2 °F 22.6 °F 28.4 °F 93% 29.87 in 7.0 mi NNW 8.1 mph - N/A   Overcast
3:15 AM 30.2 °F 22.6 °F 28.4 °F 93% 29.87 in 7.0 mi NNW 8.1 mph - N/A   Overcast
3:35 AM 30.2 °F 21.3 °F 28.4 °F 93% 29.87 in 2.5 mi NNW 10.4 mph 16.1 mph N/A Snow Light Snow
3:54 AM 30.2 °F 21.9 °F 28.4 °F 93% 29.87 in 7.0 mi NW 9.2 mph - N/A Snow Light Snow
4:15 AM 32.0 °F 26.4 °F 28.4 °F 87% 29.88 in 10.0 mi NW 5.8 mph - N/A   Overcast
4:34 AM 32.0 °F 24.8 °F 28.4 °F 87% 29.88 in 10.0 mi NW 8.1 mph - N/A Snow Light Snow
4:54 AM 32.0 °F 25.6 °F 28.4 °F 87% 29.88 in 10.0 mi NNW 6.9 mph - N/A   Overcast
5:15 AM 33.8 °F 27.0 °F 28.4 °F 81% 29.89 in 10.0 mi NNW 8.1 mph - N/A   Overcast
5:34 AM 33.8 °F 28.6 °F 28.4 °F 81% 29.89 in 10.0 mi NNW 5.8 mph - N/A   Overcast
5:54 AM 33.8 °F 29.6 °F 28.4 °F 81% 29.90 in 10.0 mi NNW 4.6 mph - N/A   Overcast
6:15 AM 33.8 °F 26.4 °F 28.4 °F 81% 29.90 in 10.0 mi NNW 9.2 mph - N/A   Overcast
6:34 AM 33.8 °F 25.3 °F 28.4 °F 81% 29.91 in 10.0 mi NNW 11.5 mph 18.4 mph N/A   Overcast
6:55 AM 33.8 °F 27.0 °F 28.4 °F 81% 29.91 in 10.0 mi NNW 8.1 mph 17.3 mph N/A   Overcast
7:15 AM 33.8 °F 25.3 °F 28.4 °F 81% 29.92 in 10.0 mi NNW 11.5 mph 19.6 mph N/A   Overcast
7:34 AM 33.8 °F 25.8 °F 28.4 °F 81% 29.92 in 10.0 mi NNW 10.4 mph 18.4 mph N/A   Overcast
7:55 AM 33.8 °F 27.0 °F 28.4 °F 81% 29.93 in 10.0 mi NNW 8.1 mph - N/A   Overcast
8:15 AM 33.8 °F 27.0 °F 28.4 °F 81% 29.93 in 10.0 mi NNW 8.1 mph - N/A   Overcast
8:34 AM 33.8 °F 28.6 °F 28.4 °F 81% 29.94 in 10.0 mi NNW 5.8 mph - N/A   Overcast
8:55 AM 33.8 °F 26.4 °F 28.4 °F 81% 29.95 in 10.0 mi NNW 9.2 mph 16.1 mph N/A   Overcast
9:14 AM 33.8 °F 26.4 °F 28.4 °F 81% 29.96 in 10.0 mi NNW 9.2 mph 17.3 mph N/A   Overcast
9:34 AM 33.8 °F 26.4 °F 28.4 °F 81% 29.96 in 10.0 mi NNW 9.2 mph 19.6 mph N/A   Overcast
9:55 AM 33.8 °F 26.4 °F 28.4 °F 81% 29.97 in 10.0 mi NNW 9.2 mph 18.4 mph N/A   Overcast
10:14 AM 33.8 °F 25.8 °F 28.4 °F 81% 29.98 in 10.0 mi NNW 10.4 mph 17.3 mph N/A   Overcast
10:35 AM 33.8 °F 24.3 °F 28.4 °F 81% 29.98 in 10.0 mi NNW 13.8 mph 21.9 mph N/A   Overcast
10:55 AM 33.8 °F 27.7 °F 28.4 °F 81% 29.99 in 10.0 mi NNW 6.9 mph 18.4 mph N/A   Overcast
11:14 AM 33.8 °F 25.3 °F 28.4 °F 81% 29.99 in 10.0 mi NNW 11.5 mph 16.1 mph N/A   Overcast
11:35 AM 33.8 °F 25.3 °F 28.4 °F 81% 29.99 in 10.0 mi NNW 11.5 mph 19.6 mph N/A   Overcast
11:55 AM 35.6 °F 29.2 °F 28.4 °F 75% 30.00 in 10.0 mi North 8.1 mph 16.1 mph N/A   Overcast
12:14 PM 35.6 °F 28.0 °F 28.4 °F 75% 30.00 in 10.0 mi NNW 10.4 mph 19.6 mph N/A   Overcast
12:35 PM 35.6 °F 26.6 °F 28.4 °F 75% 30.00 in 10.0 mi NNW 13.8 mph 24.2 mph N/A   Overcast
12:54 PM 35.6 °F 27.1 °F 28.4 °F 75% 30.01 in 10.0 mi NNW 12.7 mph 23.0 mph N/A   Overcast
1:14 PM 35.6 °F 26.2 °F 28.4 °F 75% 30.01 in 10.0 mi NNW 15.0 mph 23.0 mph N/A   Overcast
1:35 PM 37.4 °F 30.3 °F 30.2 °F 75% 30.01 in 10.0 mi NNW 10.4 mph 17.3 mph N/A   Overcast
1:54 PM 35.6 °F 27.1 °F 28.4 °F 75% 30.02 in 10.0 mi NNW 12.7 mph 23.0 mph N/A   Overcast
2:15 PM 37.4 °F 30.8 °F 30.2 °F 75% 30.03 in 10.0 mi NNW 9.2 mph 19.6 mph N/A   Overcast
2:35 PM 35.6 °F 25.9 °F 28.4 °F 75% 30.03 in 10.0 mi NNW 16.1 mph 20.7 mph N/A   Overcast
2:54 PM 35.6 °F 25.5 °F 28.4 °F 75% 30.03 in 10.0 mi NW 17.3 mph 23.0 mph N/A   Overcast
3:15 PM 35.6 °F 28.6 °F 28.4 °F 75% 30.04 in 10.0 mi NNW 9.2 mph 20.7 mph N/A   Overcast
3:34 PM 35.6 °F 28.0 °F 28.4 °F 75% 30.04 in 10.0 mi NNW 10.4 mph 20.7 mph N/A   Overcast
3:55 PM 35.6 °F 26.2 °F 28.4 °F 75% 30.05 in 10.0 mi NW 15.0 mph 21.9 mph N/A   Overcast
4:15 PM 35.6 °F 26.6 °F 28.4 °F 75% 30.05 in 10.0 mi NNW 13.8 mph 23.0 mph N/A   Overcast
4:34 PM 35.6 °F 28.0 °F 28.4 °F 75% 30.06 in 10.0 mi NNW 10.4 mph 16.1 mph N/A   Overcast
4:55 PM 35.6 °F 27.5 °F 28.4 °F 75% 30.06 in 10.0 mi NNW 11.5 mph 17.3 mph N/A   Overcast
5:14 PM 33.8 °F 25.8 °F 28.4 °F 81% 30.06 in 10.0 mi NW 10.4 mph 17.3 mph N/A   Overcast
5:34 PM 35.6 °F 29.9 °F 28.4 °F 75% 30.07 in 7.0 mi NW 6.9 mph 16.1 mph N/A   Overcast
5:54 PM 33.8 °F 26.4 °F 28.4 °F 81% 30.07 in 10.0 mi NW 9.2 mph - N/A   Overcast
6:15 PM 33.8 °F 27.7 °F 28.4 °F 81% 30.08 in 10.0 mi NW 6.9 mph - N/A   Overcast
6:35 PM 33.8 °F 26.4 °F 30.2 °F 87% 30.08 in 10.0 mi NW 9.2 mph - N/A   Overcast
6:54 PM 32.0 °F 25.6 °F 30.2 °F 93% 30.09 in 3.0 mi NW 6.9 mph - N/A Snow Light Snow
7:15 PM 33.8 °F 28.6 °F 30.2 °F 87% 30.09 in 10.0 mi NW 5.8 mph - N/A   Overcast
7:35 PM 33.8 °F 29.6 °F 30.2 °F 87% 30.10 in 10.0 mi WNW 4.6 mph - N/A   Overcast
7:54 PM 33.8 °F 28.6 °F 30.2 °F 87% 30.10 in 10.0 mi WNW 5.8 mph - N/A   Overcast
8:15 PM 33.8 °F 30.8 °F 30.2 °F 87% 30.11 in 10.0 mi NNW 3.5 mph - N/A   Overcast
8:34 PM 33.8 °F 27.0 °F 30.2 °F 87% 30.11 in 2.5 mi NNW 8.1 mph - N/A Snow Light Snow
8:54 PM 32.0 °F 26.4 °F 30.2 °F 93% 30.11 in 7.0 mi NW 5.8 mph - N/A Snow Light Snow
9:14 PM 32.0 °F 26.4 °F 30.2 °F 93% 30.12 in 3.0 mi North 5.8 mph - N/A Snow Light Snow
9:34 PM 32.0 °F 26.4 °F 30.2 °F 93% 30.12 in 1.5 mi NNW 5.8 mph - N/A Snow Light Snow
9:55 PM 32.0 °F 27.5 °F 30.2 °F 93% 30.12 in 7.0 mi NNW 4.6 mph - N/A   Overcast
10:14 PM 30.2 °F 25.4 °F 30.2 °F 100% 30.12 in 10.0 mi NNW 4.6 mph - N/A   Overcast
10:35 PM 30.2 °F 26.7 °F 30.2 °F 100% 30.13 in 7.0 mi NNW 3.5 mph - N/A   Overcast
10:55 PM 30.2 °F 26.7 °F 30.2 °F 100% 30.13 in 2.5 mi NNW 3.5 mph - N/A Snow Light Snow
11:35 PM 30.2 °F 25.4 °F 30.2 °F 100% 30.14 in 4.0 mi North 4.6 mph - N/A Snow Light Snow
11:55 PM 30.2 °F 25.4 °F 30.2 °F 100% 30.14 in 3.0 mi North 4.6 mph - N/A Snow Light Snow